Flag for Germany Weather past 2 weeks in Stade, Lower Saxony, Germany

41 °F

Partly cloudy.

Feels Like: 33 °F
Forecast: 38 / 46 °F
Wind: 15 mph from Southwest

Location: Hamburg-Finkenwerder

Current Time: Nov 28, 2015 at 12:29:20 AM

Latest Report: Nov 27, 2015 at 8:50 PM

Visibility: N/A

Pressure: 29.80 "Hg

Humidity: 81%

Dew point: 36 °F

Location of StadeLocation

Historic Weather in Stade — Graph


Stade temperature yesterday

Maximum temperature yesterday: 43 °F (at 12:50 PM)
Minimum temperature yesterday: 34 °F (at 6:20 AM)
Average temperature yesterday: 39 °F

Past Weeks' High & Low Weather Summary

High57 °F (Nov 13, 10:50 AM)100% (Nov 12, 8:20 PM)30.21 "Hg (Nov 12, 8:20 PM)
Low32 °F (Nov 23, 8:20 AM)63% (Nov 13, 2:20 PM)29.33 "Hg (Nov 21, 8:50 AM)
Average45 °F92%29.79 "Hg
* Reported Nov 12 8:20 PM — Nov 27 8:50 PM, Stade, Weather by CustomWeather, © 2015

Note: Actual official high and low records may vary slightly from our data, if they occured in-between our weather recording intervals... More about our weather records


Stade weather history for previous 24 hours

Time TempWeatherWind HumidityBarometerVisibility
8:50 PM
Fri, Nov 27
41 °FPartly cloudy.15 mph81%29.80 "HgN/A
8:20 PM39 °FPassing clouds.13 mph93%29.80 "HgN/A
7:50 PM39 °FClear.13 mph93%29.80 "Hg10 mi
7:20 PM39 °FClear.14 mph93%29.83 "Hg10 mi
6:50 PM41 °FClear.14 mph87%29.83 "Hg10 mi
6:20 PM41 °FPassing clouds.10 mph93%29.86 "HgN/A
5:50 PM41 °FPassing clouds.9 mph93%29.86 "HgN/A
5:20 PM41 °FPassing clouds.8 mph93%29.86 "HgN/A
4:50 PM41 °FPassing clouds.8 mph93%29.89 "HgN/A
4:20 PM41 °FPassing clouds.7 mph93%29.89 "HgN/A
3:50 PM43 °FSunny.12 mph87%29.89 "Hg10 mi
3:20 PM43 °FPassing clouds.9 mph87%29.89 "HgN/A
2:50 PM43 °FPassing clouds.13 mph93%29.92 "HgN/A
2:20 PM43 °FPassing clouds.9 mph93%29.92 "HgN/A
1:50 PM43 °FPassing clouds.10 mph100%29.95 "HgN/A
1:20 PM43 °FScattered clouds.12 mph100%29.95 "HgN/A
12:50 PM43 °FScattered clouds.12 mph100%29.98 "HgN/A
12:20 PM41 °FScattered clouds.14 mph100%29.98 "HgN/A
11:50 AM41 °FPartly sunny.10 mph100%29.98 "HgN/A
11:20 AM39 °FPartly sunny.10 mph100%30.01 "Hg4 mi
10:53 AM39 °FPartly sunny.10 mph100%30.01 "Hg4 mi
10:20 AM37 °FPartly sunny.9 mph100%30.01 "Hg4 mi
9:50 AM36 °FPartly sunny.9 mph100%30.01 "Hg4 mi
9:20 AM36 °FPartly sunny.9 mph100%30.04 "Hg4 mi
8:50 AM36 °FPartly sunny.8 mph100%30.04 "Hg4 mi
7:50 AM34 °FPassing clouds.7 mph100%30.04 "Hg4 mi
7:20 AM34 °FPassing clouds.7 mph100%30.04 "HgN/A
6:50 AM34 °FPassing clouds.5 mph100%30.04 "HgN/A
6:20 AM34 °FPassing clouds.5 mph100%30.04 "HgN/A
Weather by CustomWeather, © 2015

See weather overviewHow to use our weather pages